Find Tian Lian 1-02

NORAD ID: 37737 Int'l Des: 2011-032 Owner: CAST Country: CN operational
HEOCIRCULAR

当前视图

正在加载3D地球...

关于 Tian Lian 1-02

正在加载描述...

即将过境

Passes for default location (London). Set your location on the main map for personalized predictions.

高度历史

Loading altitude history...

两行轨道根数

1 37737U 11032A 26151.10777745 -.00000193 00000-0 00000+0 0 9990
2 37737 5.5093 67.5745 0006509 269.7890 123.2312 0.99000521 43935
Epoch: May 31, 2026 • Age: 6 hours

当前状态

高度 36170.6 km
速度 3.06 km/s
星下点 4.97°N, 172.2°E
发射日期 Jul 11, 2011
运行时间 14.8 years
类型 other

技术详情

分类 Payload
质量 2500.00 kg
干质量 1060.00 kg
总质量 2500.00 kg
长度 6.00 m
直径 1.70 m
跨度 18.10 m
形状 Box + 2 Pan + Dish
制造商 CAST
平台类型 DFH-3
阶段状态 In Orbit
所有者/国家 CAST/CN

Most Searched